Terminal Aerodrome Forecast
Issued by NWS

Home | Current Version | Previous Version | Text Only | Print | Product List | Glossary On
Versions: 1 2 3 4 5 6 7 8 9 10 11 12 13 14 15 16 17 18 19 20 21 22 23 24 25 26 27 28
000
FTUS45 KGJT 212339
TAFMTJ
TAF
KMTJ 212339Z 2200/2224 34005KT P6SM VCTS SCT070CB SCT120
     FM220100 15006KT P6SM VCTS SCT060CB BKN100
      TEMPO 2202/2206 VRB20G30KT 4SM SHRA SCT040 BKN060
     FM220600 16007KT P6SM VCSH SCT050 BKN080
     FM221200 18005KT P6SM BKN200
     FM221900 30008KT P6SM SCT090 SCT200=

USA.gov is the U.S. government's official web portal to all federal, state and local government web resources and services.